This demonstration page uses our WeatherBlox Daily Observations layout. Learn more.

Left ArrowRight Arrow

Hourly Observations for January 22, 2015

Temp ( °F °C ) Dew Point ( °F °C ) Humidity (%) Winds ( mph kmh ) Pressure ( in mb ) Visibility ( mi km ) Precip ( " mm )
12:16 am 00:16 Cloudy 32 0 32 0 100 100 NNW 9 15 30.27 1025 5 8.0467 N/A
12:35 am 00:35 Cloudy 32 0 32 0 100 100 NNW 10 17 30.27 1025 4 6.43736 N/A
12:55 am 00:55 Cloudy 32 0 32 0 100 100 NNW 8 13 30.27 1025 7 11.26538 N/A
1:15 am 01:15 Cloudy 32 0 32 0 100 100 NNW 9 15 30.27 1025 7 11.26538 N/A
1:35 am 01:35 Cloudy 32 0 32 0 100 100 NNW 6 9 30.27 1025 7 11.26538 N/A
1:56 am 01:56 Cloudy 32 0 32 0 100 100 NNW 5 7 30.27 1025 7 11.26538 N/A
2:15 am 02:15 Cloudy 32 0 32 0 100 100 NNW 5 7 30.27 1025 7 11.26538 N/A
2:35 am 02:35 Cloudy 32 0 32 0 100 100 NW 3 6 30.3 1026 7 11.26538 N/A
2:56 am 02:56 Cloudy 32 0 32 0 100 100 NNW 5 7 30.3 1026 7 11.26538 N/A
3:15 am 03:15 Cloudy 32 0 32 0 100 100 NNW 3 6 30.3 1026 7 11.26538 N/A
3:36 am 03:36 Cloudy 32 0 32 0 100 100 NNW 8 13 30.3 1026 7 11.26538 N/A
3:55 am 03:55 Mostly Cloudy 32 0 32 0 100 100 NNW 7 11 30.3 1026 7 11.26538 N/A
4:15 am 04:15 Mostly Cloudy 32 0 32 0 100 100 NNW 5 7 30.3 1026 7 11.26538 N/A
4:36 am 04:36 Cloudy 32 0 32 0 100 100 NNW 6 9 30.33 1027 7 11.26538 N/A
4:55 am 04:55 Cloudy 32 0 30 -1 93 93 N 7 11 30.33 1027 10 16.0934 N/A
5:15 am 05:15 Mostly Cloudy 30 -1 28 -2 93 93 NNW 5 7 30.33 1027 10 16.0934 N/A
5:35 am 05:35 Partly Cloudy 28 -2 27 -3 93 93 NW 5 7 30.33 1027 10 16.0934 N/A
5:55 am 05:55 Partly Cloudy 28 -2 27 -3 93 93 NNW 5 7 30.33 1027 10 16.0934 N/A
6:15 am 06:15 Mostly Cloudy 28 -2 28 -2 100 100 W 3 6 30.36 1028 10 16.0934 N/A
6:35 am 06:35 Cloudy 30 -1 28 -2 93 93 W 6 9 30.36 1028 10 16.0934 N/A
6:55 am 06:55 Cloudy 30 -1 28 -2 93 93 W 3 6 30.36 1028 7 11.26538 N/A
7:15 am 07:15 Cloudy 30 -1 28 -2 93 93 W 5 7 30.39 1029 10 16.0934 N/A
7:35 am 07:35 Cloudy 30 -1 28 -2 93 93 W 5 7 30.39 1029 7 11.26538 N/A
7:55 am 07:55 Cloudy 30 -1 27 -3 86 86 WNW 5 7 30.39 1029 10 16.0934 N/A
8:16 am 08:16 Cloudy 30 -1 28 -2 93 93 NW 5 7 30.42 1030 7 11.26538 N/A
8:35 am 08:35 Cloudy 30 -1 27 -3 86 86 NW 3 6 30.42 1030 10 16.0934 N/A
8:55 am 08:55 Cloudy 30 -1 25 -4 80 80 NW 3 6 30.42 1030 7 11.26538 N/A
9:16 am 09:16 Cloudy 32 0 25 -4 75 75 NW 3 6 30.45 1031 7 11.26538 N/A
9:35 am 09:35 Cloudy 32 0 23 -5 69 69 NW 3 6 30.45 1031 7 11.26538 N/A
9:55 am 09:55 Mostly Cloudy 32 0 21 -6 64 64 Calm 30.45 1031 10 16.0934 N/A
10:16 am 10:16 Mostly Cloudy 32 0 21 -6 64 64 NNW 7 11 30.45 1031 10 16.0934 N/A
10:35 am 10:35 Cloudy 32 0 23 -5 69 69 NW 7 11 30.45 1031 10 16.0934 N/A
10:56 am 10:56 Cloudy 32 0 23 -5 69 69 NNW 7 11 30.45 1031 10 16.0934 N/A
11:15 am 11:15 Cloudy 32 0 21 -6 64 64 NNW 7 11 30.45 1031 10 16.0934 N/A
11:35 am 11:35 Cloudy 32 0 21 -6 64 64 NNW 7 11 30.45 1031 10 16.0934 N/A
11:56 am 11:56 Cloudy 32 0 21 -6 64 64 NNW 8 13 30.45 1031 10 16.0934 N/A
12:15 pm 12:15 Cloudy 32 0 21 -6 64 64 NNW 9 15 30.45 1031 10 16.0934 N/A
12:36 pm 12:36 Cloudy 32 0 19 -7 60 60 Calm 30.45 1031 10 16.0934 N/A
12:55 pm 12:55 Cloudy 32 0 19 -7 60 60 NNW 6 9 30.45 1031 10 16.0934 N/A
1:15 pm 13:15 Mostly Cloudy 32 0 18 -8 55 55 NNW 5 7 30.45 1031 10 16.0934 N/A
1:36 pm 13:36 Partly Cloudy 32 0 18 -8 55 55 NNW 7 11 30.45 1031 10 16.0934 N/A
1:55 pm 13:55 Mostly Cloudy 32 0 18 -8 55 55 N 7 11 30.45 1031 10 16.0934 N/A
2:16 pm 14:16 Cloudy 32 0 18 -8 55 55 N 3 6 30.45 1031 10 16.0934 N/A
2:35 pm 14:35 Mostly Cloudy 32 0 18 -8 55 55 N 3 6 30.45 1031 10 16.0934 N/A
2:55 pm 14:55 Mostly Cloudy 32 0 18 -8 55 55 NNE 5 7 30.45 1031 10 16.0934 N/A
3:15 pm 15:15 Cloudy 32 0 18 -8 55 55 Calm 30.45 1031 10 16.0934 N/A
3:35 pm 15:35 Mostly Cloudy 32 0 18 -8 55 55 NNW 7 11 30.45 1031 10 16.0934 N/A
3:56 pm 15:56 Mostly Cloudy 32 0 18 -8 55 55 NW 8 13 30.48 1032 10 16.0934 N/A
4:15 pm 16:15 Mostly Cloudy 32 0 19 -7 60 60 NNW 8 13 30.45 1031 10 16.0934 N/A
4:36 pm 16:36 Mostly Cloudy 32 0 18 -8 55 55 N 7 11 30.45 1031 10 16.0934 N/A
4:55 pm 16:55 Mostly Cloudy 32 0 19 -7 60 60 NNW 8 13 30.45 1031 10 16.0934 N/A
5:15 pm 17:15 Cloudy 32 0 18 -8 55 55 NNW 5 7 30.45 1031 10 16.0934 N/A
5:35 pm 17:35 Cloudy 32 0 19 -7 60 60 NNW 5 7 30.45 1031 10 16.0934 N/A
5:55 pm 17:55 Mostly Cloudy 32 0 18 -8 55 55 N 6 9 30.48 1032 10 16.0934 N/A
6:15 pm 18:15 Cloudy 32 0 19 -7 60 60 N 7 11 30.48 1032 10 16.0934 N/A
6:35 pm 18:35 Mostly Cloudy 32 0 18 -8 55 55 NNW 5 7 30.48 1032 10 16.0934 N/A
6:55 pm 18:55 Mostly Cloudy 32 0 19 -7 60 60 N 5 7 30.48 1032 10 16.0934 N/A
7:16 pm 19:16 Mostly Cloudy 32 0 18 -8 55 55 NNE 7 11 30.48 1032 10 16.0934 N/A
7:35 pm 19:35 Mostly Cloudy 32 0 19 -7 60 60 N 5 7 30.48 1032 10 16.0934 N/A
7:56 pm 19:56 Cloudy 32 0 18 -8 55 55 NNW 5 7 30.48 1032 10 16.0934 N/A
8:15 pm 20:15 Cloudy 30 -1 18 -8 59 59 NNW 5 7 30.45 1031 10 16.0934 N/A
8:35 pm 20:35 Cloudy 32 0 18 -8 55 55 Calm 30.45 1031 10 16.0934 N/A
8:56 pm 20:56 Cloudy 30 -1 18 -8 59 59 Calm 30.45 1031 10 16.0934 N/A
9:15 pm 21:15 Cloudy 30 -1 18 -8 59 59 NNW 6 9 30.45 1031 10 16.0934 N/A
9:35 pm 21:35 Mostly Cloudy 30 -1 18 -8 59 59 NNW 5 7 30.45 1031 10 16.0934 N/A
9:55 pm 21:55 Cloudy 30 -1 16 -9 55 55 Calm 30.45 1031 10 16.0934 N/A
10:15 pm 22:15 Cloudy 30 -1 18 -8 59 59 Calm 30.45 1031 10 16.0934 N/A
10:36 pm 22:36 Cloudy 30 -1 18 -8 59 59 NNE 5 7 30.45 1031 10 16.0934 N/A
10:55 pm 22:55 Cloudy 30 -1 18 -8 59 59 Calm 30.45 1031 10 16.0934 N/A
11:15 pm 23:15 Cloudy 30 -1 16 -9 55 55 N 3 6 30.45 1031 10 16.0934 N/A
11:35 pm 23:35 Cloudy 30 -1 16 -9 55 55 Calm 30.45 1031 10 16.0934 N/A
11:55 pm 23:55 Cloudy 30 -1 18 -8 59 59 Calm 30.45 1031 10 16.0934 N/A

Powered by AerisWeather